Temp
6 6 6 6 6 6 6 6 6 6 6 6 6 6 5 5 5 5 5 5 5 5 5 5 5 5 5 5 5 5 6 6 6 6 6 6 6 5 5 5 5 5
6 6 6 6 6 6 6 6 6 6 6 6 6 6 6 5 5 5 5 5 5 5 5 5 5 5 5 5 5 6 6 6 6 6 6 5 5 5 5 5 5 5
6 6 6 6 6 6 6 6 6 6 6 6 6 6 6 6 5 5 5 5 5 5 5 5 5 5 5 5 6 6 6 6 6 5 5 5 5 5 5 5 5 4
6 6 6 6 6 6 6 6 6 6 6 6 6 6 6 6 6 6 6 6 6 5 5 5 5 5 5 5 6 6 6 5 5 5 5 5 4 4 4 4 4 4
6 6 6 6 6 6 6 6 6 6 6 6 6 6 6 6 6 6 6 6 5 5 5 5 5 5 5 5 6 6 5 5 5 5 4 4 4 4 4 4 4 4
6 6 6 6 6 6 6 6 6 6 6 6 6 5 5 6 6 6 6 6 5 5 5 5 5 5 5 5 5 5 5 5 5 4 4 4 4 4 4 4 4 4
6 6 6 6 6 6 6 6 6 6 6 5 5 5 5 5 6 6 6 5 5 5 5 5 5 5 5 5 5 5 5 4 4 4 4 4 4 4 3 3 3 3
6 6 6 6 6 6 6 6 6 5 5 5 5 5 5 5 5 5 5 5 5 5 5 5 5 5 5 5 5 5 4 4 4 4 4 4 3 3 3 3 3 3
6 6 6 6 6 6 6 6 6 5 5 5 5 5 5 5 5 5 5 5 5 5 5 5 5 5 5 4 4 4 4 4 4 4 3 3 3 3 3 3 3 2
6 6 6 6 6 6 6 6 5 5 5 5 5 5 5 5 5 5 5 5 5 5 5 5 4 4 4 4 4 4 4 4 3 3 3 3 3 3 2 2 2 2
6 6 6 5 5 5 5 5 5 5 5 5 4 4 5 5 5 5 5 5 4 4 4 4 4 4 4 4 4 3 3 3 3 2 2 2 2 2 2 2 2 2
5 5 5 5 5 5 5 5 5 4 4 4 4 4 4 4 4 4 4 4 4 4 4 4 4 4 4 3 3 3 3 2 2 2 2 2 2 2 2 1 1 1
5 5 5 5 5 5 5 4 4 4 4 4 4 4 4 4 4 4 4 4 4 4 4 3 3 3 3 3 3 2 2 2 2 2 2 1 1 1 1 1 1 1
5 5 5 5 5 4 4 4 3 3 3 4 4 4 4 4 4 4 4 3 3 3 3 3 3 3 2 2 2 2 2 2 1 1 1 1 1 1 1 0 0 0
5 5 5 5 5 4 4 3 3 3 3 3 3 4 4 3 3 3 3 3 3 3 3 3 2 2 2 2 2 1 1 1 1 1 1 1 0 0 0 0 0 0
5 5 5 4 4 4 3 3 3 3 3 3 3 3 3 3 3 3 3 3 3 3 2 2 2 2 2 1 1 1 1 1 1 1 0 0 0 0 0 0 0 -0
5 5 4 4 4 3 3 3 3 3 3 3 3 3 3 3 3 3 3 3 2 2 2 2 1 1 1 1 1 1 1 0 0 0 0 0 0 0 0 -0 -0 -0
5 4 4 4 3 3 3 3 3 3 3 3 3 3 3 3 3 2 2 2 2 2 1 1 1 1 1 1 1 1 0 0 0 0 0 -0 -0 -0 -0 -0 -1 -1
4 4 4 3 3 3 3 3 3 3 3 3 3 3 3 2 2 2 2 2 1 1 1 1 1 1 1 1 0 0 0 0 0 -0 -0 -0 -0 -0 -1 -1 -1 -1
4 4 3 3 3 2 2 2 3 3 3 3 2 2 2 2 2 2 1 1 1 1 1 1 1 1 0 0 0 0 -0 -0 -0 -0 -0 -1 -1 -1 -1 -1 -1 -1
4 3 3 3 2 2 2 2 2 2 2 2 2 2 2 2 1 1 1 1 1 1 1 0 0 0 0 0 -0 -0 -0 -0 -0 -1 -1 -1 -1 -1 -1 -1 -1 -1
3 3 2 2 2 2 2 2 2 2 2 2 2 2 1 1 1 1 1 0 0 0 0 0 0 -0 -0 -0 -0 -0 -0 -0 -1 -1 -1 -1 -1 -1 -1 -1 -1 -2
2 2 2 2 2 2 2 2 2 2 2 2 1 1 1 1 1 1 0 0 0 0 0 -0 -0 -0 -0 -0 -0 -1 -1 -1 -1 -1 -1 -1 -1 -2 -2 -2 -2 -2
2 2 1 1 1 1 2 2 2 2 1 1 1 1 1 1 0 0 0 0 0 -0 -0 -0 -0 -0 -1 -1 -1 -1 -1 -1 -1 -2 -2 -2 -2 -2 -2 -2 -2 -2
1 1 1 1 1 1 1 2 1 1 1 1 1 0 0 0 0 0 0 -0 -0 -0 -0 -1 -1 -1 -1 -1 -1 -1 -1 -1 -2 -2 -2 -2 -2 -2 -2 -2 -2 -3
1 1 1 1 1 1 1 1 1 1 1 1 0 0 0 0 -0 -0 -0 -0 -0 -1 -1 -1 -1 -1 -1 -1 -1 -1 -1 -2 -2 -2 -2 -2 -2 -3 -3 -2 -3 -3
Height
3156 3158 3159 3159 3160 3160 3160 3160 3161 3162 3162 3163 3163 3163 3164 3164 3164 3163 3163 3163 3163 3163 3162 3161 3161 3160 3159 3158 3157 3156 3154 3152 3150 3148 3146 3143 3141 3139 3137 3135 3134 3132
3156 3157 3158 3158 3159 3159 3160 3160 3160 3161 3161 3162 3162 3162 3162 3162 3162 3162 3162 3162 3161 3161 3161 3160 3159 3159 3158 3156 3155 3154 3152 3150 3148 3146 3143 3141 3139 3137 3135 3134 3132 3130
3155 3156 3157 3157 3158 3158 3159 3159 3159 3160 3160 3161 3161 3161 3161 3161 3161 3161 3161 3160 3160 3160 3159 3159 3158 3157 3156 3155 3153 3152 3150 3148 3146 3143 3141 3139 3138 3136 3134 3132 3130 3128
3154 3155 3155 3156 3157 3157 3157 3158 3158 3159 3159 3160 3160 3160 3160 3160 3160 3160 3159 3159 3159 3158 3158 3157 3156 3155 3154 3153 3151 3150 3148 3146 3144 3142 3140 3138 3136 3134 3132 3130 3128 3126
3153 3153 3154 3155 3155 3156 3156 3157 3157 3157 3158 3158 3158 3159 3159 3159 3158 3158 3158 3158 3157 3157 3156 3155 3154 3153 3152 3151 3149 3147 3146 3144 3142 3140 3138 3136 3134 3132 3130 3128 3126 3124
3151 3152 3153 3154 3154 3155 3155 3155 3156 3156 3156 3157 3157 3157 3157 3157 3157 3156 3156 3156 3156 3155 3154 3153 3152 3151 3150 3149 3147 3145 3144 3142 3140 3138 3136 3134 3132 3130 3128 3126 3124 3121
3150 3151 3152 3152 3153 3153 3153 3154 3154 3154 3155 3155 3155 3156 3156 3156 3155 3155 3155 3154 3154 3153 3152 3151 3150 3149 3148 3147 3145 3143 3142 3140 3138 3136 3134 3132 3130 3128 3126 3124 3121 3119
3149 3149 3150 3150 3151 3151 3152 3152 3152 3153 3153 3153 3154 3154 3154 3154 3154 3154 3153 3153 3152 3151 3150 3149 3148 3147 3146 3144 3143 3141 3140 3138 3136 3134 3133 3131 3128 3126 3124 3122 3119 3117
3147 3147 3148 3148 3149 3149 3150 3150 3151 3151 3151 3152 3152 3152 3152 3152 3152 3152 3151 3151 3150 3149 3148 3147 3146 3145 3144 3143 3141 3140 3138 3136 3135 3133 3131 3129 3127 3124 3122 3120 3118 3116
3145 3145 3146 3146 3147 3147 3148 3148 3149 3149 3150 3150 3150 3150 3150 3150 3150 3150 3149 3148 3148 3147 3146 3145 3144 3143 3142 3141 3139 3138 3136 3134 3133 3131 3129 3127 3125 3123 3120 3118 3116 3114
3143 3143 3144 3144 3145 3145 3146 3146 3147 3147 3147 3148 3148 3148 3148 3148 3148 3148 3147 3146 3145 3145 3144 3143 3142 3141 3140 3139 3138 3136 3135 3133 3131 3129 3127 3125 3123 3121 3119 3116 3114 3112
3140 3141 3141 3142 3142 3143 3143 3144 3145 3145 3145 3145 3146 3146 3146 3146 3146 3145 3145 3144 3143 3143 3142 3141 3140 3139 3139 3137 3136 3135 3133 3131 3130 3128 3126 3123 3121 3119 3117 3115 3112 3110
3138 3139 3139 3140 3140 3141 3141 3142 3142 3143 3143 3144 3144 3144 3144 3144 3143 3143 3143 3142 3142 3141 3140 3139 3139 3138 3137 3136 3135 3133 3132 3130 3128 3126 3124 3122 3120 3118 3116 3113 3111 3108
3136 3137 3137 3138 3138 3139 3140 3140 3141 3141 3141 3142 3142 3142 3142 3142 3141 3141 3141 3140 3140 3139 3139 3138 3137 3136 3136 3135 3134 3132 3131 3129 3126 3124 3123 3121 3119 3117 3115 3112 3110 3107
3134 3135 3135 3136 3136 3137 3138 3138 3139 3139 3139 3140 3140 3140 3140 3140 3140 3139 3139 3139 3138 3138 3137 3136 3136 3135 3135 3134 3133 3131 3129 3127 3125 3124 3122 3120 3118 3116 3114 3111 3109 3106
3132 3133 3133 3133 3134 3135 3136 3136 3137 3137 3138 3138 3138 3138 3138 3138 3138 3138 3137 3137 3137 3136 3136 3135 3135 3134 3134 3133 3132 3130 3128 3127 3125 3123 3121 3119 3117 3115 3113 3110 3108 3105
3130 3130 3131 3131 3132 3133 3133 3134 3135 3135 3136 3136 3136 3136 3136 3136 3136 3136 3136 3135 3135 3135 3134 3134 3134 3133 3133 3132 3130 3129 3127 3126 3124 3122 3120 3118 3116 3114 3111 3109 3107 3104
3128 3128 3129 3129 3130 3130 3131 3132 3133 3133 3134 3134 3134 3135 3135 3135 3135 3135 3135 3134 3134 3134 3133 3133 3133 3132 3131 3130 3129 3128 3126 3125 3123 3121 3119 3117 3115 3113 3110 3108 3106 3103
3126 3126 3127 3127 3128 3129 3129 3130 3131 3132 3132 3132 3133 3133 3133 3134 3134 3134 3134 3133 3133 3133 3132 3132 3131 3131 3130 3129 3128 3127 3125 3124 3122 3120 3118 3116 3114 3112 3110 3107 3105 3102
3124 3124 3125 3125 3126 3127 3128 3128 3129 3130 3131 3131 3132 3132 3132 3133 3133 3133 3133 3133 3132 3132 3131 3131 3130 3129 3129 3128 3127 3126 3124 3123 3121 3120 3118 3116 3113 3111 3109 3106 3104 3102
3122 3122 3123 3124 3125 3125 3126 3127 3128 3129 3130 3130 3131 3131 3132 3132 3132 3132 3132 3132 3131 3131 3130 3129 3129 3128 3128 3127 3126 3124 3123 3121 3120 3119 3117 3115 3112 3110 3108 3105 3103 3101
3120 3121 3122 3122 3123 3124 3125 3126 3127 3128 3129 3129 3130 3131 3131 3131 3131 3131 3131 3131 3130 3130 3129 3128 3128 3128 3127 3125 3124 3123 3122 3120 3119 3117 3116 3114 3111 3109 3107 3105 3103 3101
3118 3119 3120 3121 3122 3123 3124 3125 3126 3127 3128 3128 3129 3130 3130 3130 3130 3130 3130 3130 3129 3128 3128 3128 3127 3126 3125 3124 3123 3122 3121 3119 3118 3116 3114 3112 3110 3108 3107 3105 3103 3100
3117 3118 3119 3119 3120 3121 3122 3123 3124 3125 3126 3127 3128 3128 3129 3129 3129 3129 3129 3129 3128 3127 3127 3127 3126 3125 3124 3123 3122 3121 3120 3119 3117 3115 3113 3111 3110 3108 3107 3105 3102 3100
3115 3116 3117 3118 3119 3120 3121 3122 3123 3124 3125 3126 3126 3127 3128 3128 3128 3128 3128 3127 3127 3126 3126 3126 3125 3124 3123 3122 3122 3121 3119 3118 3116 3114 3113 3111 3110 3108 3107 3105 3102 3100
3113 3114 3115 3116 3117 3118 3119 3120 3121 3122 3123 3124 3125 3126 3127 3127 3127 3127 3127 3126 3126 3125 3125 3124 3124 3123 3123 3122 3121 3120 3118 3117 3115 3114 3113 3112 3110 3109 3107 3105 3102 3100
Wind_Speed
11 10 9 8 7 6 6 5 5 5 6 6 6 6 7 7 7 8 8 8 8 8 8 9 10 12 14 16 17 20 23 26 27 27 26 25 24 23 23 23 23 22
12 10 9 8 7 7 7 7 7 7 7 6 6 7 7 8 8 8 8 8 8 8 9 10 11 13 15 17 19 22 25 27 26 25 23 22 21 20 20 19 19 19
12 10 9 9 8 8 7 8 7 7 7 7 8 8 8 8 9 9 9 9 9 9 10 11 13 15 17 19 21 24 26 26 24 23 21 20 19 19 19 19 19 19
12 11 11 10 10 9 9 8 8 8 8 9 9 9 9 10 10 10 10 10 10 10 11 13 14 17 19 21 23 25 25 25 22 21 20 19 19 19 20 20 20 21
14 13 12 12 11 11 10 9 9 9 10 10 10 10 10 11 11 11 11 11 11 11 12 14 16 18 20 22 23 24 24 23 21 20 20 20 20 20 21 21 22 22
16 15 14 14 13 13 12 11 11 11 11 12 12 12 12 12 12 12 12 12 12 12 13 15 17 19 21 22 22 23 23 22 21 21 20 20 21 21 22 22 23 23
17 16 16 15 15 15 14 13 13 13 13 14 14 14 13 13 13 12 12 12 12 13 14 16 18 19 20 21 21 21 21 21 21 21 21 21 22 22 23 23 24 24
17 17 17 16 16 16 17 16 15 15 15 15 15 15 15 14 14 13 13 12 12 13 15 16 17 18 19 19 19 20 20 20 20 20 21 22 22 23 23 24 25 25
17 17 17 17 17 17 18 17 17 17 17 16 16 16 15 15 14 13 13 12 12 13 14 15 16 16 17 17 18 18 19 19 19 20 21 22 23 23 24 24 25 25
16 16 16 16 17 18 18 19 18 18 18 17 17 16 16 15 14 13 12 12 12 12 13 13 14 15 15 16 17 18 18 19 19 20 21 22 22 23 23 24 25 26
14 15 15 16 17 18 19 20 19 19 19 18 17 16 15 14 14 13 12 11 11 11 11 11 12 13 14 15 16 17 18 18 19 20 20 21 22 23 23 24 26 27
13 13 14 15 16 18 20 20 20 19 18 17 16 15 14 13 12 11 10 10 9 9 9 10 11 12 13 14 16 16 17 18 18 19 20 21 22 23 24 25 27 28
11 11 13 14 16 17 19 19 18 17 17 16 15 14 13 12 11 10 9 8 7 7 8 9 10 11 12 13 14 15 16 17 18 19 19 20 21 23 24 25 26 27
10 11 12 13 14 16 17 17 16 16 15 15 13 12 11 10 9 8 7 6 6 6 7 8 9 10 11 12 13 14 15 17 18 18 19 20 21 22 23 24 25 27
10 11 11 12 13 14 14 15 14 14 14 13 12 11 10 9 8 6 5 4 4 5 6 7 8 9 10 11 12 13 15 16 17 17 18 19 21 22 23 24 25 27
10 11 12 13 13 13 13 13 13 13 12 11 10 9 8 8 6 5 4 3 4 5 6 6 7 8 9 10 12 13 14 15 16 17 18 19 20 21 23 24 25 26
11 12 13 13 12 11 11 11 11 11 11 10 9 8 7 7 5 4 3 3 3 4 4 5 6 7 9 10 12 13 13 14 15 16 18 19 20 21 23 24 25 26
13 13 13 12 12 11 11 11 11 11 10 10 9 8 7 6 5 4 4 3 3 3 3 4 6 7 9 11 12 12 13 14 15 17 18 19 20 22 23 24 25 25
14 14 14 13 11 10 10 10 10 10 10 10 9 8 7 7 6 5 4 3 3 2 3 4 6 8 10 11 12 12 13 14 15 17 18 19 20 21 22 23 24 25
15 14 13 12 10 9 9 10 10 10 10 10 9 9 8 7 6 5 4 3 2 2 3 5 7 9 10 11 12 12 13 14 15 17 18 19 20 21 22 23 23 24
14 13 11 9 8 8 9 10 10 10 10 9 9 9 8 6 6 5 4 2 1 2 4 6 8 9 10 11 12 13 14 15 16 17 18 19 20 21 21 22 23 23
12 11 9 8 8 8 9 10 10 10 10 9 9 8 7 7 6 5 3 2 1 3 5 7 8 9 10 11 12 13 14 15 16 17 18 19 20 21 21 21 22 23
10 9 8 8 8 9 9 10 10 10 10 9 8 8 7 7 6 4 3 2 2 4 6 7 8 9 11 12 12 13 14 15 16 17 18 19 20 20 20 20 21 22
10 9 9 9 9 9 10 10 10 10 9 9 9 8 8 7 6 4 2 2 3 5 6 7 8 10 11 11 12 13 13 14 16 17 19 19 19 20 19 19 20 22
10 9 9 10 10 10 11 11 10 10 9 9 9 8 8 6 5 3 2 3 5 6 7 8 9 9 10 11 11 12 13 14 16 17 18 18 18 18 18 18 20 22
11 10 10 11 11 12 12 11 10 10 10 10 9 8 7 6 4 3 3 4 6 6 7 8 8 9 9 10 10 11 12 14 16 17 16 16 16 17 17 18 20 22
Wind_Direction
204 211 221 228 239 248 254 262 258 255 263 275 284 284 287 293 299 303 304 304 304 307 310 316 321 323 325 326 327 328 329 329 327 324 321 320 319 319 318 317 317 317
215 220 231 241 249 255 260 264 259 259 269 279 284 283 288 297 302 306 306 305 307 309 311 315 318 321 323 324 326 328 329 329 328 326 326 326 327 327 325 324 325 325
223 230 241 248 253 258 263 267 266 265 269 274 279 283 291 301 305 307 308 306 306 307 309 311 315 320 323 324 326 328 330 331 331 330 330 331 330 329 326 326 327 326
231 238 247 253 256 262 267 274 277 273 268 269 275 283 292 300 304 307 306 304 304 304 305 309 314 320 324 325 327 329 331 333 332 331 329 329 328 327 327 327 327 326
238 243 250 255 257 261 267 275 282 281 276 273 276 282 289 296 301 304 304 302 301 301 304 310 317 321 325 326 328 330 332 332 331 329 328 328 329 329 329 329 329 329
242 246 251 255 256 259 264 272 281 285 284 280 279 281 285 292 298 300 301 299 298 301 306 313 318 323 326 327 329 330 331 330 329 329 330 330 331 331 332 332 331 331
242 245 250 254 257 260 263 270 278 283 284 282 280 281 283 288 294 297 298 297 298 303 308 315 320 325 327 328 328 328 328 328 328 329 331 332 333 333 334 333 333 333
242 245 250 255 259 261 263 268 275 278 280 281 279 279 281 285 290 293 294 296 300 304 311 318 323 326 327 326 326 326 326 326 328 330 332 333 334 334 334 334 335 335
242 246 251 256 260 262 264 267 271 274 277 278 278 277 279 283 286 289 292 296 301 307 315 321 324 325 325 325 324 325 326 327 330 333 334 335 335 335 335 336 335 336
246 251 256 261 264 265 266 267 269 272 274 275 275 275 277 280 284 287 291 297 303 311 318 321 323 324 324 324 325 326 328 331 334 336 336 336 336 336 336 336 336 337
254 258 262 265 266 266 265 265 266 268 269 270 271 272 274 278 282 286 291 299 306 313 317 320 322 324 325 326 327 329 333 336 337 337 337 337 338 339 338 339 341 341
261 264 266 266 265 263 261 261 262 263 264 266 267 269 272 276 280 285 292 300 306 310 314 320 324 327 329 329 331 334 336 337 337 337 339 341 341 342 343 344 345 344
260 264 266 265 262 259 257 257 258 260 261 262 266 269 272 276 279 285 292 296 302 308 316 325 329 331 334 335 336 338 337 337 338 340 342 344 344 346 347 346 345 345
265 266 264 262 258 255 254 254 255 258 260 263 266 269 271 273 277 282 286 289 297 310 321 330 334 335 338 338 337 337 337 338 341 343 345 346 347 347 346 345 345 345
276 271 262 257 254 251 251 253 255 258 260 263 265 266 268 269 272 273 274 281 298 316 328 333 337 339 338 337 337 337 339 341 343 345 347 347 346 345 345 345 345 346
281 271 259 252 248 248 249 251 254 256 259 261 262 262 262 262 261 260 260 280 304 318 330 336 339 340 336 337 339 340 342 343 344 346 346 345 345 344 344 345 346 346
282 270 257 249 244 244 246 248 252 255 258 260 258 255 253 248 241 236 247 279 298 310 329 337 337 337 336 339 341 342 344 344 343 345 345 344 344 344 345 346 347 347
280 270 257 248 242 242 244 247 252 255 257 256 250 244 237 225 218 223 243 267 280 298 328 335 335 337 338 341 342 343 344 344 344 346 345 345 345 345 346 347 347 349
277 268 256 246 240 240 242 247 251 252 251 246 239 229 218 208 212 227 246 254 266 305 333 336 338 340 341 342 342 343 345 346 347 347 346 347 347 347 347 348 348 350
271 260 249 241 238 238 242 247 249 248 245 238 226 213 205 208 221 233 239 240 258 320 336 341 343 342 341 341 341 344 347 348 349 349 349 349 349 348 349 349 350 351
260 248 239 234 232 235 241 247 246 242 234 223 211 205 208 221 231 229 226 229 274 329 341 346 343 340 340 341 344 348 349 350 351 352 351 350 350 351 352 351 352 353
243 231 223 219 223 231 237 239 235 227 216 207 204 211 222 230 228 220 218 234 299 336 346 344 340 338 341 344 348 350 350 351 353 354 353 353 353 354 354 353 354 356
217 209 208 213 221 227 228 225 218 209 203 204 211 220 225 225 219 217 224 257 317 340 345 341 338 340 345 348 351 351 352 353 355 356 356 356 357 356 355 354 357 0
201 200 207 215 219 219 216 209 202 201 205 212 217 218 219 219 216 218 240 291 330 341 340 339 341 344 348 352 353 352 354 357 359 0 360 358 359 358 356 358 2 5
197 201 209 215 214 209 203 196 198 207 214 216 216 214 213 214 216 227 267 314 333 337 337 339 344 348 351 354 354 354 358 2 4 4 2 0 2 0 358 2 8 10
198 205 211 210 204 198 196 200 211 218 216 212 212 212 212 212 223 250 294 322 331 334 337 341 346 351 354 355 356 359 4 9 8 6 3 3 5 4 3 9 14 14